Location: *
(46.3500°N, 10.9000°E)
Time: 23:03:09
(UTC+00:00)

A-11 Canister half - Pass Details

Date: 22 April 2021
Orbit: 1526 x 1682 km, 47.3° (Epoch: 13 May)

Event Time Altitude Azimuth Distance (km) Brightness Sun altitude
Rises 14:36:54 0° 240° (WSW) 4,852 12.6 35.7°
Reaches altitude 10° 14:39:59 10° 239° (WSW) 3,884 12.5 35.3°
Maximum altitude 14:49:57 75° 156° (SSE) 1,724 9.8 33.6°
Drops below altitude 10° 15:00:05 10° 74° (ENE) 3,949 10.7 32.0°
Sets 15:03:16 0° 73° (ENE) 4,936 11.1 31.4°
